Location: Paul P. Feder Observatory
(46.8670°N, 96.4537°W)
Time: 12:36:43
(UTC-05:00)

Tiangong - Visible Passes

Search period start: 01 October 2023 00:00
Search period end: 11 October 2023 00:00
Orbit: 372 x 384 km, 41.5° (Epoch: 01 October)

Date Brightness Start Highest point End Pass type
(mag) Time Alt. Az. Time Alt. Az. Time Alt. Az.
01 Oct -0.1 19:41:27 10° SSW 19:43:28 16° SSE 19:45:29 10° ESE visible
01 Oct 0.3 21:16:51 10° WSW 21:17:49 17° SW 21:17:49 17° SW visible
02 Oct -0.7 20:15:14 10° SW 20:17:54 25° S 20:18:52 21° SE visible
03 Oct -0.7 20:49:32 10° WSW 20:51:51 28° SSW 20:51:51 28° SSW visible
04 Oct -0.8 19:47:38 10° WSW 19:50:23 29° S 19:52:40 13° ESE visible
04 Oct 0.7 21:24:01 10° WSW 21:24:43 14° WSW 21:24:43 14° WSW visible
05 Oct -0.8 20:21:53 10° WSW 20:24:39 28° S 20:25:27 25° SSE visible
06 Oct 0.0 20:56:22 10° WSW 20:58:09 19° SSW 20:58:09 19° SSW visible
07 Oct -0.5 19:53:57 10° WSW 19:56:37 25° S 19:58:45 13° SE visible
08 Oct 0.2 20:28:29 10° WSW 20:30:28 16° SSW 20:31:22 14° S visible
09 Oct -0.1 19:25:44 10° WSW 19:28:12 21° SSW 19:30:39 10° SE visible
10 Oct 0.7 20:00:38 10° SW 20:01:49 12° SSW 20:03:00 10° S visible
